Location: Unspecified
(0.0000°N, 0.0000°E)
Time: 12:03:17
(UTC+02:00)

Transit 2A - Visible Passes

Search period start: 21 August 2017 00:00
Search period end: 31 August 2017 00:00
Orbit: 595 x 964 km, 66.7° (Epoch: 20 August)

Date Brightness Start Highest point End Pass type
(mag) Time Alt. Az. Time Alt. Az. Time Alt. Az.
21 Aug 7.3 06:01:20 10° N 06:07:26 49° ENE 06:13:25 10° SE visible
22 Aug 8.1 05:27:55 10° N 05:33:26 31° ENE 05:38:50 10° SE visible
22 Aug 7.3 07:11:24 10° WNW 07:16:26 25° WSW 07:21:22 10° SSW visible
23 Aug 8.6 04:58:17 19° NE 04:59:24 20° ENE 05:03:46 10° ESE visible
23 Aug 6.8 06:39:30 25° WNW 06:42:28 39° WSW 06:48:09 10° S visible
24 Aug 7.4 06:11:22 32° S 06:11:22 32° S 06:14:34 10° S visible
